When you browse on this site, cookies collect data to enhance your experience and personalize the content and advertising you see.
Visit our Privacy Policy to learn more. By continuing to use the site, you agree to this use of cookies and data.
  • In United Kingdom
  • List of Countries
  • For 7 days
  • Water Temperature
  • Satellite Maps
  • Weather Map
  • Weather Widgets
  • user-avatar
    Login

    Hourly Weather Sevan

    Today, 19 July, Friday

    Time Temperature Precipitation Wind Pressure Humidity
    00:00 +21°C° 0 mm 3 mps 639 mmHg 50%
    01:00 +21°C° 0 mm 3 mps 639 mmHg 53%
    02:00 +20°C° 0 mm 3 mps 639 mmHg 55%
    03:00 +19°C° 0 mm 2 mps 639 mmHg 57%
    04:00 +20°C° 0 mm 2 mps 640 mmHg 58%
    05:00 +20°C° 0 mm 2 mps 640 mmHg 58%
    06:00 +21°C° 0 mm 2 mps 641 mmHg 59%
    07:00 +24°C° 0 mm 2 mps 641 mmHg 54%
    08:00 +26°C° 0 mm 2 mps 642 mmHg 50%
    09:00 +28°C° 0 mm 2 mps 642 mmHg 45%
    10:00 +29°C° 0 mm 2 mps 643 mmHg 40%
    11:00 +30°C° 0 mm 3 mps 643 mmHg 36%
    12:00 +31°C° 0 mm 3 mps 643 mmHg 31%
    13:00 +33°C° 0.1 mm 3 mps 643 mmHg 31%
    14:00 +33°C° 0.1 mm 3 mps 643 mmHg 32%
    15:00 +33°C° 0.1 mm 3 mps 643 mmHg 32%
    16:00 +31°C° 0.1 mm 3 mps 642 mmHg 40%
    17:00 +29°C° 0.1 mm 4 mps 642 mmHg 47%
    18:00 +28°C° 0.1 mm 5 mps 642 mmHg 54%
    19:00 +26°C° 0 mm 5 mps 642 mmHg 60%
    20:00 +23°C° 0 mm 5 mps 642 mmHg 65%
    21:00 +21°C° 0 mm 5 mps 642 mmHg 71%
    22:00 +21°C° 0 mm 5 mps 642 mmHg 72%
    23:00 +20°C° 0 mm 4 mps 642 mmHg 73%

    Tomorrow, 20 July, Saturday

    Time Temperature Precipitation Wind Pressure Humidity
    00:00 +20°C° 0 mm 4 mps 642 mmHg 74%
    01:00 +20°C° 0 mm 3 mps 642 mmHg 75%
    02:00 +19°C° 0 mm 3 mps 642 mmHg 76%
    03:00 +19°C° 0 mm 3 mps 642 mmHg 77%
    04:00 +19°C° 0 mm 2 mps 643 mmHg 76%
    05:00 +20°C° 0 mm 2 mps 643 mmHg 75%
    06:00 +20°C° 0 mm 2 mps 643 mmHg 74%
    07:00 +23°C° 0 mm 2 mps 644 mmHg 67%
    08:00 +25°C° 0 mm 2 mps 644 mmHg 60%
    09:00 +27°C° 0 mm 2 mps 645 mmHg 54%
    10:00 +28°C° 0 mm 2 mps 645 mmHg 49%
    11:00 +30°C° 0 mm 2 mps 645 mmHg 45%
    12:00 +31°C° 0 mm 2 mps 646 mmHg 41%
    13:00 +32°C° 0 mm 2 mps 645 mmHg 40%
    14:00 +33°C° 0 mm 3 mps 645 mmHg 39%
    15:00 +34°C° 0 mm 3 mps 645 mmHg 38%
    16:00 +33°C° 0 mm 3 mps 645 mmHg 44%
    17:00 +30°C° 0 mm 4 mps 644 mmHg 50%
    18:00 +29°C° 0 mm 5 mps 644 mmHg 56%
    19:00 +27°C° 0 mm 5 mps 644 mmHg 61%
    20:00 +26°C° 0 mm 5 mps 644 mmHg 66%
    21:00 +23°C° 0 mm 5 mps 644 mmHg 71%
    22:00 +22°C° 0 mm 5 mps 644 mmHg 71%
    23:00 +22°C° 0 mm 4 mps 644 mmHg 70%

    Day after tomorrow, 21 July, Sunday

    Time Temperature Precipitation Wind Pressure Humidity
    00:00 +21°C° 0 mm 4 mps 644 mmHg 70%
    01:00 +21°C° 0 mm 3 mps 644 mmHg 69%
    02:00 +20°C° 0 mm 3 mps 644 mmHg 69%
    03:00 +20°C° 0 mm 3 mps 644 mmHg 68%
    04:00 +20°C° 0 mm 2 mps 644 mmHg 66%
    05:00 +21°C° 0 mm 2 mps 644 mmHg 65%
    06:00 +21°C° 0 mm 2 mps 644 mmHg 63%
    07:00 +24°C° 0 mm 2 mps 645 mmHg 57%
    08:00 +27°C° 0 mm 2 mps 645 mmHg 50%
    09:00 +29°C° 0 mm 2 mps 646 mmHg 43%
    10:00 +30°C° 0 mm 2 mps 646 mmHg 40%
    11:00 +32°C° 0 mm 2 mps 646 mmHg 36%
    12:00 +34°C° 0 mm 3 mps 646 mmHg 32%
    13:00 +35°C° 0 mm 3 mps 646 mmHg 32%
    14:00 +35°C° 0 mm 4 mps 646 mmHg 32%
    15:00 +36°C° 0 mm 4 mps 645 mmHg 32%
    16:00 +35°C° 0 mm 4 mps 645 mmHg 38%
    17:00 +33°C° 0 mm 4 mps 645 mmHg 44%
    18:00 +32°C° 0 mm 4 mps 644 mmHg 50%
    19:00 +30°C° 0 mm 4 mps 644 mmHg 49%
    20:00 +29°C° 0 mm 4 mps 644 mmHg 48%
    21:00 +27°C° 0 mm 4 mps 644 mmHg 47%
    22:00 +26°C° 0 mm 4 mps 644 mmHg 49%
    23:00 +25°C° 0 mm 4 mps 644 mmHg 52%

    22 July, Monday

    Time Temperature Precipitation Wind Pressure Humidity
    00:00 +22°C° 0 mm 3 mps 643 mmHg 54%
    01:00 +22°C° 0 mm 3 mps 643 mmHg 55%
    02:00 +22°C° 0 mm 3 mps 643 mmHg 56%
    03:00 +21°C° 0 mm 2 mps 642 mmHg 58%
    04:00 +21°C° 0 mm 2 mps 643 mmHg 57%
    05:00 +23°C° 0 mm 2 mps 643 mmHg 57%
    06:00 +23°C° 0 mm 2 mps 643 mmHg 57%
    07:00 +26°C° 0 mm 2 mps 643 mmHg 51%
    08:00 +28°C° 0 mm 2 mps 644 mmHg 45%
    09:00 +30°C° 0 mm 2 mps 644 mmHg 39%
    10:00 +32°C° 0 mm 2 mps 644 mmHg 36%
    11:00 +34°C° 0 mm 2 mps 644 mmHg 33%
    12:00 +35°C° 0 mm 3 mps 644 mmHg 30%
    13:00 +36°C° 0 mm 3 mps 644 mmHg 29%
    14:00 +36°C° 0 mm 3 mps 644 mmHg 29%
    15:00 +37°C° 0 mm 2 mps 644 mmHg 28%
    16:00 +35°C° 0.1 mm 3 mps 643 mmHg 36%
    17:00 +34°C° 0.1 mm 4 mps 642 mmHg 43%
    18:00 +32°C° 0.1 mm 4 mps 642 mmHg 51%
    19:00 +29°C° 0 mm 4 mps 642 mmHg 55%
    20:00 +27°C° 0 mm 4 mps 641 mmHg 58%
    21:00 +25°C° 0 mm 4 mps 641 mmHg 62%
    22:00 +23°C° 0 mm 4 mps 641 mmHg 62%
    23:00 +23°C° 0 mm 4 mps 641 mmHg 62%

    23 July, Tuesday

    Time Temperature Precipitation Wind Pressure Humidity
    00:00 +22°C° 0 mm 3 mps 641 mmHg 62%
    01:00 +21°C° 0 mm 3 mps 641 mmHg 63%
    02:00 +21°C° 0 mm 2 mps 640 mmHg 65%
    03:00 +20°C° 0 mm 2 mps 640 mmHg 66%
    04:00 +20°C° 0 mm 2 mps 640 mmHg 66%
    05:00 +21°C° 0 mm 2 mps 641 mmHg 65%
    06:00 +21°C° 0 mm 2 mps 641 mmHg 65%
    07:00 +24°C° 0 mm 2 mps 641 mmHg 60%
    08:00 +26°C° 0 mm 2 mps 642 mmHg 54%
    09:00 +28°C° 0 mm 2 mps 642 mmHg 49%
    10:00 +30°C° 0 mm 2 mps 642 mmHg 45%
    11:00 +31°C° 0 mm 2 mps 642 mmHg 41%
    12:00 +32°C° 0 mm 2 mps 642 mmHg 37%
    13:00 +34°C° 0.2 mm 3 mps 642 mmHg 38%
    14:00 +34°C° 0.2 mm 3 mps 641 mmHg 39%
    15:00 +34°C° 0.2 mm 3 mps 641 mmHg 40%
    16:00 +33°C° 0.2 mm 3 mps 640 mmHg 44%
    17:00 +32°C° 0.2 mm 4 mps 640 mmHg 49%
    18:00 +29°C° 0.2 mm 5 mps 640 mmHg 54%
    19:00 +27°C° 0 mm 5 mps 640 mmHg 59%
    20:00 +25°C° 0 mm 5 mps 640 mmHg 64%
    21:00 +22°C° 0 mm 5 mps 640 mmHg 70%
    22:00 +22°C° 0 mm 4 mps 640 mmHg 70%
    23:00 +22°C° 0 mm 4 mps 640 mmHg 70%

    24 July, Wednesday

    Time Temperature Precipitation Wind Pressure Humidity
    00:00 +21°C° 0 mm 3 mps 640 mmHg 69%
    01:00 +21°C° 0 mm 3 mps 640 mmHg 69%
    02:00 +21°C° 0 mm 2 mps 640 mmHg 69%
    03:00 +20°C° 0 mm 2 mps 639 mmHg 69%
    04:00 +21°C° 0 mm 2 mps 640 mmHg 67%
    05:00 +21°C° 0 mm 2 mps 640 mmHg 66%
    06:00 +23°C° 0 mm 2 mps 640 mmHg 65%
    07:00 +25°C° 0 mm 2 mps 640 mmHg 58%
    08:00 +27°C° 0 mm 2 mps 641 mmHg 52%
    09:00 +29°C° 0 mm 2 mps 641 mmHg 46%
    10:00 +30°C° 0 mm 3 mps 641 mmHg 39%
    11:00 +33°C° 0 mm 4 mps 642 mmHg 32%
    12:00 +34°C° 0 mm 4 mps 642 mmHg 25%
    13:00 +35°C° 0 mm 4 mps 642 mmHg 23%
    14:00 +36°C° 0 mm 4 mps 641 mmHg 20%
    15:00 +37°C° 0 mm 4 mps 641 mmHg 18%
    16:00 +36°C° 0 mm 5 mps 641 mmHg 20%
    17:00 +35°C° 0 mm 6 mps 641 mmHg 23%
    18:00 +34°C° 0 mm 6 mps 640 mmHg 25%
    19:00 +32°C° 0 mm 5 mps 640 mmHg 32%
    20:00 +28°C° 0 mm 4 mps 640 mmHg 40%
    21:00 +25°C° 0 mm 4 mps 640 mmHg 48%
    22:00 +24°C° 0 mm 3 mps 640 mmHg 47%
    23:00 +24°C° 0 mm 3 mps 640 mmHg 47%
    Show more